TimeCDT,TemperatureF,Dew PointF,Humidity,Sea Level PressureIn,VisibilityMPH,Wind Direction,Wind SpeedMPH,Gust SpeedMPH,PrecipitationIn,Events,Conditions,WindDirDegrees,DateUTC
12:48 AM,48.2,42.8,82,29.81,8.0,Calm,Calm,-,N/A,,Clear,0,2012-10-07 05:48:00
12:50 AM,57,45,54,29.74,5,South,2.2,,,,,180,2012-10-07 05:50:00
1:44 AM,46.4,42.8,87,30.18,8.0,Calm,Calm,-,N/A,,Clear,0,2012-10-07 06:44:00
2:45 AM,46.4,41.0,81,30.18,8.0,Calm,Calm,-,N/A,,Clear,0,2012-10-07 07:45:00
3:45 AM,44.6,41.0,87,29.82,8.0,Calm,Calm,-,N/A,,Clear,0,2012-10-07 08:45:00
3:50 AM,51,45,74,29.76,5,South,4.5,,,,,180,2012-10-07 08:50:00
4:43 AM,42.8,41.0,93,30.18,8.0,Calm,Calm,-,N/A,,Clear,0,2012-10-07 09:43:00
5:44 AM,41.0,39.2,93,30.18,8.0,Calm,Calm,-,N/A,,Clear,0,2012-10-07 10:44:00
6:50 AM,47,44,86,29.79,6,SSW,4.5,,,,,210,2012-10-07 11:50:00
6:52 AM,39.2,39.2,100,29.90,8.0,Calm,Calm,-,N/A,,Clear,0,2012-10-07 11:52:00
7:40 AM,39.2,37.4,93,30.22,8.0,Calm,Calm,-,N/A,,Clear,0,2012-10-07 12:40:00
8:42 AM,46.4,44.6,93,30.25,8.0,Calm,Calm,-,N/A,,Clear,0,2012-10-07 13:42:00
9:19 AM,51.8,46.4,82,30.26,8.0,Calm,Calm,-,N/A,,Clear,0,2012-10-07 14:19:00
9:45 AM,55.4,46.4,72,29.97,8.0,Calm,Calm,-,N/A,,Clear,0,2012-10-07 14:45:00
10:05 AM,59.0,44.6,59,30.26,8.0,Calm,Calm,-,N/A,,Clear,0,2012-10-07 15:05:00
10:49 AM,64.4,46.4,52,30.26,8.0,Calm,Calm,-,N/A,,Clear,0,2012-10-07 15:49:00
11:47 AM,69.8,44.6,40,30.24,8.0,Calm,Calm,-,N/A,,Clear,0,2012-10-07 16:47:00
12:43 PM,73.4,44.6,36,29.87,8.0,Calm,Calm,-,N/A,,Clear,0,2012-10-07 17:43:00
1:45 PM,77.0,42.8,29,30.18,8.0,NNE,5.8,-,N/A,,Clear,30,2012-10-07 18:45:00
2:45 PM,78.8,44.6,30,30.15,8.0,NNE,9.2,-,N/A,,Clear,20,2012-10-07 19:45:00
3:50 PM,80,39,14,29.81,9,ESE,6.7,,,,,120,2012-10-07 20:50:00
4:05 PM,80.6,41.0,24,29.73,8.0,NW,5.8,-,N/A,,Clear,310,2012-10-07 21:05:00
4:40 PM,80.6,39.2,23,30.11,8.0,NW,3.5,-,N/A,,Clear,320,2012-10-07 21:40:00
5:41 PM,80.6,35.6,20,30.09,8.0,North,5.8,-,N/A,,Clear,350,2012-10-07 22:41:00
6:50 PM,76,38,15,29.67,15,SSW,6.7,,,,,210,2012-10-07 23:50:00
6:50 PM,75.2,41.0,29,29.82,8.0,NE,5.8,-,N/A,,Clear,40,2012-10-07 23:50:00
7:47 PM,64.4,42.8,45,30.13,8.0,NNE,3.5,-,N/A,,Clear,20,2012-10-08 00:47:00
8:40 PM,59.0,46.4,63,30.15,8.0,Calm,Calm,-,N/A,,Clear,0,2012-10-08 01:40:00
9:42 PM,55.4,42.8,63,29.90,8.0,Calm,Calm,-,N/A,,Clear,0,2012-10-08 02:42:00
9:55 PM,64,47,43,29.73,5,SSE,2.2,,,,,150,2012-10-08 02:55:00
10:43 PM,55.4,42.8,63,30.20,8.0,Calm,Calm,-,N/A,,Clear,0,2012-10-08 03:43:00
11:40 PM,55.4,42.8,63,30.22,8.0,Calm,Calm,-,N/A,,Clear,0,2012-10-08 04:40:00